Time,TemperatureF,DewpointF,PressureIn,WindDirection,WindDirectionDegrees,WindSpeedMPH,WindSpeedGustMPH,Humidity,HourlyPrecipIn,Conditions,Clouds,dailyrainin,SoftwareType,DateUTC
2013-01-01 00:00:00,36.9,31.6,29.83,WNW,292,3.8,-999.0,81,-99.99,,,0.00,Acu-Link.com,2013-01-01 05:00:00,
2013-01-01 00:15:00,36.7,32.0,29.82,NNE,22,1.6,-999.0,83,-99.99,,,0.00,Acu-Link.com,2013-01-01 05:15:00,
2013-01-01 00:31:00,36.9,32.5,29.82,SW,225,4.3,-999.0,84,-99.99,,,0.00,Acu-Link.com,2013-01-01 05:31:00,
2013-01-01 00:46:00,36.9,33.1,29.82,WSW,247,2.2,-999.0,86,-99.99,,,0.00,Acu-Link.com,2013-01-01 05:46:00,
2013-01-01 01:01:00,36.7,33.5,29.82,NW,315,2.7,-999.0,88,-99.99,,,0.00,Acu-Link.com,2013-01-01 06:01:00,
2013-01-01 01:16:00,37.2,34.0,29.82,WNW,292,2.7,-999.0,88,-99.99,,,0.00,Acu-Link.com,2013-01-01 06:16:00,
2013-01-01 01:31:00,37.6,34.4,29.82,NNE,22,1.6,-999.0,88,-99.99,,,0.00,Acu-Link.com,2013-01-01 06:31:00,
2013-01-01 01:47:00,37.8,35.1,29.83,NNE,22,1.6,-999.0,90,-99.99,,,0.00,Acu-Link.com,2013-01-01 06:47:00,
2013-01-01 02:02:00,37.9,35.3,29.83,WSW,247,2.7,-999.0,90,-99.99,,,0.00,Acu-Link.com,2013-01-01 07:02:00,
2013-01-01 02:17:00,38.1,36.0,29.81,WNW,292,0.0,-999.0,92,-99.99,,,0.00,Acu-Link.com,2013-01-01 07:17:00,
2013-01-01 02:32:00,37.9,36.4,29.82,NNE,22,0.0,-999.0,94,-99.99,,,0.00,Acu-Link.com,2013-01-01 07:32:00,
2013-01-01 02:47:00,38.1,36.5,29.81,West,270,1.6,-999.0,94,-99.99,,,0.00,Acu-Link.com,2013-01-01 07:47:00,
2013-01-01 03:03:00,37.9,37.2,29.82,NNE,22,1.1,-999.0,97,-99.99,,,0.00,Acu-Link.com,2013-01-01 08:03:00,
2013-01-01 03:18:00,38.3,37.5,29.83,NNW,337,1.6,-999.0,97,-99.99,,,0.02,Acu-Link.com,2013-01-01 08:18:00,
2013-01-01 03:33:00,38.1,37.6,29.84,West,270,0.0,-999.0,98,-99.99,,,0.02,Acu-Link.com,2013-01-01 08:33:00,
2013-01-01 03:48:00,38.1,37.6,29.82,West,270,2.7,-999.0,98,-99.99,,,0.02,Acu-Link.com,2013-01-01 08:48:00,
2013-01-01 04:07:00,37.9,37.4,29.82,WNW,292,2.7,-999.0,98,-99.99,,,0.02,Acu-Link.com,2013-01-01 09:07:00,
2013-01-01 04:22:00,37.9,37.4,29.82,WNW,292,0.0,-999.0,98,-99.99,,,0.02,Acu-Link.com,2013-01-01 09:22:00,
2013-01-01 04:37:00,37.9,37.4,29.83,West,270,2.7,-999.0,98,-99.99,,,0.02,Acu-Link.com,2013-01-01 09:37:00,
2013-01-01 04:52:00,37.9,37.4,29.82,NE,45,0.0,-999.0,98,-99.99,,,0.02,Acu-Link.com,2013-01-01 09:52:00,
2013-01-01 05:07:00,37.8,37.2,29.82,SW,225,0.0,-999.0,98,-99.99,,,0.02,Acu-Link.com,2013-01-01 10:07:00,
2013-01-01 05:23:00,37.4,36.9,29.82,NNE,22,0.0,-999.0,98,-99.99,,,0.02,Acu-Link.com,2013-01-01 10:23:00,
2013-01-01 05:38:00,37.6,37.1,29.81,East,90,0.0,-999.0,98,-99.99,,,0.02,Acu-Link.com,2013-01-01 10:38:00,
2013-01-01 05:53:00,37.6,37.1,29.81,SSE,157,0.0,-999.0,98,-99.99,,,0.02,Acu-Link.com,2013-01-01 10:53:00,
2013-01-01 06:08:00,37.6,37.1,29.81,WNW,292,0.0,-999.0,98,-99.99,,,0.02,Acu-Link.com,2013-01-01 11:08:00,
2013-01-01 06:23:00,37.6,37.1,29.81,NW,315,0.0,-999.0,98,-99.99,,,0.02,Acu-Link.com,2013-01-01 11:23:00,
2013-01-01 06:39:00,37.8,37.2,29.82,SE,135,1.6,-999.0,98,-99.99,,,0.02,Acu-Link.com,2013-01-01 11:39:00,
2013-01-01 06:54:00,37.6,37.1,29.82,SSW,202,1.6,-999.0,98,-99.99,,,0.02,Acu-Link.com,2013-01-01 11:54:00,
2013-01-01 07:09:00,37.8,36.7,29.83,WNW,292,0.0,-999.0,96,-99.99,,,0.02,Acu-Link.com,2013-01-01 12:09:00,
2013-01-01 07:24:00,37.6,36.5,29.82,SSW,202,0.0,-999.0,96,-99.99,,,0.02,Acu-Link.com,2013-01-01 12:24:00,
2013-01-01 07:39:00,37.2,36.7,29.82,North,0,2.2,-999.0,98,-99.99,,,0.02,Acu-Link.com,2013-01-01 12:39:00,
2013-01-01 07:55:00,37.2,36.7,29.83,SSE,157,0.0,-999.0,98,-99.99,,,0.02,Acu-Link.com,2013-01-01 12:55:00,
2013-01-01 08:10:00,37.6,36.8,29.83,WNW,292,0.0,-999.0,97,-99.99,,,0.02,Acu-Link.com,2013-01-01 13:10:00,
2013-01-01 08:25:00,37.4,36.9,29.83,ESE,112,0.0,-999.0,98,-99.99,,,0.02,Acu-Link.com,2013-01-01 13:25:00,
2013-01-01 08:40:00,37.6,37.1,29.83,West,270,0.0,-999.0,98,-99.99,,,0.02,Acu-Link.com,2013-01-01 13:40:00,
2013-01-01 08:56:00,37.6,37.1,29.83,WSW,247,0.0,-999.0,98,-99.99,,,0.02,Acu-Link.com,2013-01-01 13:56:00,
2013-01-01 09:11:00,37.6,37.1,29.83,NW,315,0.0,-999.0,98,-99.99,,,0.02,Acu-Link.com,2013-01-01 14:11:00,
2013-01-01 09:26:00,37.9,37.4,29.83,WNW,292,0.0,-999.0,98,-99.99,,,0.02,Acu-Link.com,2013-01-01 14:26:00,
2013-01-01 09:41:00,37.9,37.4,29.84,SW,225,0.0,-999.0,98,-99.99,,,0.02,Acu-Link.com,2013-01-01 14:41:00,
2013-01-01 09:56:00,38.1,37.6,29.85,WNW,292,0.0,-999.0,98,-99.99,,,0.02,Acu-Link.com,2013-01-01 14:56:00,
2013-01-01 10:11:00,38.5,38.0,29.85,WNW,292,1.6,-999.0,98,-99.99,,,0.02,Acu-Link.com,2013-01-01 15:11:00,
2013-01-01 10:26:00,38.7,37.1,29.84,WSW,247,0.0,-999.0,94,-99.99,,,0.02,Acu-Link.com,2013-01-01 15:26:00,
2013-01-01 10:42:00,38.8,37.0,29.84,ESE,112,0.0,-999.0,93,-99.99,,,0.02,Acu-Link.com,2013-01-01 15:42:00,
2013-01-01 10:57:00,38.7,37.1,29.84,West,270,1.1,-999.0,94,-99.99,,,0.02,Acu-Link.com,2013-01-01 15:57:00,
2013-01-01 11:12:00,38.3,37.5,29.84,WSW,247,4.3,-999.0,97,-99.99,,,0.02,Acu-Link.com,2013-01-01 16:12:00,
2013-01-01 11:30:00,37.6,36.0,29.84,West,270,2.7,-999.0,94,-99.99,,,0.02,Acu-Link.com,2013-01-01 16:30:00,
2013-01-01 11:46:00,37.4,36.1,29.83,South,180,0.0,-999.0,95,-99.99,,,0.02,Acu-Link.com,2013-01-01 16:46:00,
2013-01-01 12:01:00,37.4,35.0,29.81,SSW,202,0.0,-999.0,91,-99.99,,,0.02,Acu-Link.com,2013-01-01 17:01:00,
2013-01-01 12:16:00,37.4,33.9,29.82,North,0,4.3,-999.0,87,-99.99,,,0.02,Acu-Link.com,2013-01-01 17:16:00,
2013-01-01 12:31:00,37.4,33.3,29.82,West,270,1.6,-999.0,85,-99.99,,,0.02,Acu-Link.com,2013-01-01 17:31:00,
2013-01-01 12:46:00,37.6,33.2,29.82,West,270,0.0,-999.0,84,-99.99,,,0.02,Acu-Link.com,2013-01-01 17:46:00,
2013-01-01 13:01:00,37.8,32.5,29.81,West,270,3.1,-999.0,81,-99.99,,,0.02,Acu-Link.com,2013-01-01 18:01:00,
2013-01-01 13:17:00,38.1,32.5,29.80,SW,225,1.6,-999.0,80,-99.99,,,0.02,Acu-Link.com,2013-01-01 18:17:00,
2013-01-01 13:32:00,38.3,32.4,29.80,NW,315,2.7,-999.0,79,-99.99,,,0.02,Acu-Link.com,2013-01-01 18:32:00,
2013-01-01 13:47:00,38.5,32.2,29.80,West,270,0.0,-999.0,78,-99.99,,,0.02,Acu-Link.com,2013-01-01 18:47:00,
2013-01-01 14:02:00,38.7,32.1,29.79,West,270,0.0,-999.0,77,-99.99,,,0.02,Acu-Link.com,2013-01-01 19:02:00,
2013-01-01 14:17:00,39.0,30.8,29.78,SSW,202,2.2,-999.0,72,-99.99,,,0.02,Acu-Link.com,2013-01-01 19:17:00,
2013-01-01 14:32:00,39.0,29.7,29.79,SW,225,4.3,-999.0,69,-99.99,,,0.02,Acu-Link.com,2013-01-01 19:32:00,
2013-01-01 14:47:00,39.2,29.5,29.80,West,270,4.3,-999.0,68,-99.99,,,0.02,Acu-Link.com,2013-01-01 19:47:00,
2013-01-01 15:03:00,39.2,29.9,29.80,WNW,292,4.7,-999.0,69,-99.99,,,0.02,Acu-Link.com,2013-01-01 20:03:00,
2013-01-01 15:18:00,38.8,29.2,29.79,NW,315,2.2,-999.0,68,-99.99,,,0.02,Acu-Link.com,2013-01-01 20:18:00,
2013-01-01 15:33:00,38.3,28.3,29.80,WNW,292,2.2,-999.0,67,-99.99,,,0.02,Acu-Link.com,2013-01-01 20:33:00,
2013-01-01 15:48:00,37.6,27.6,29.81,SSW,202,2.2,-999.0,67,-99.99,,,0.02,Acu-Link.com,2013-01-01 20:48:00,
2013-01-01 16:03:00,36.7,26.8,29.84,WNW,292,5.1,-999.0,67,-99.99,,,0.02,Acu-Link.com,2013-01-01 21:03:00,
2013-01-01 16:18:00,36.1,26.6,29.84,SW,225,1.6,-999.0,68,-99.99,,,0.02,Acu-Link.com,2013-01-01 21:18:00,
2013-01-01 16:33:00,35.6,26.5,29.85,NW,315,2.2,-999.0,69,-99.99,,,0.02,Acu-Link.com,2013-01-01 21:33:00,
2013-01-01 16:49:00,34.9,26.8,29.85,West,270,0.0,-999.0,72,-99.99,,,0.02,Acu-Link.com,2013-01-01 21:49:00,
2013-01-01 17:04:00,34.5,25.8,29.85,West,270,2.2,-999.0,70,-99.99,,,0.02,Acu-Link.com,2013-01-01 22:04:00,
2013-01-01 17:19:00,34.3,25.2,29.87,West,270,0.0,-999.0,69,-99.99,,,0.02,Acu-Link.com,2013-01-01 22:19:00,
2013-01-01 17:34:00,34.0,24.2,29.86,West,270,3.1,-999.0,67,-99.99,,,0.02,Acu-Link.com,2013-01-01 22:34:00,
2013-01-01 17:49:00,33.6,23.5,29.87,West,270,4.3,-999.0,66,-99.99,,,0.02,Acu-Link.com,2013-01-01 22:49:00,
2013-01-01 18:04:00,32.9,22.4,29.88,SW,225,2.2,-999.0,65,-99.99,,,0.02,Acu-Link.com,2013-01-01 23:04:00,
2013-01-01 18:19:00,32.5,22.5,29.87,SE,135,2.2,-999.0,66,-99.99,,,0.02,Acu-Link.com,2013-01-01 23:19:00,
2013-01-01 18:34:00,32.2,21.8,29.88,WSW,247,2.7,-999.0,65,-99.99,,,0.02,Acu-Link.com,2013-01-01 23:34:00,
2013-01-01 18:49:00,32.2,21.4,29.89,NNE,22,1.1,-999.0,64,-99.99,,,0.02,Acu-Link.com,2013-01-01 23:49:00,
2013-01-01 19:04:00,31.6,21.2,29.90,ESE,112,4.7,-999.0,65,-99.99,,,0.02,Acu-Link.com,2013-01-02 00:04:00,
2013-01-01 19:19:00,31.1,21.8,29.90,East,90,2.2,-999.0,68,-99.99,,,0.02,Acu-Link.com,2013-01-02 00:19:00,
2013-01-01 19:35:00,30.7,21.8,29.91,NW,315,4.3,-999.0,69,-99.99,,,0.02,Acu-Link.com,2013-01-02 00:35:00,
2013-01-01 19:50:00,30.6,21.6,29.91,WNW,292,2.7,-999.0,69,-99.99,,,0.02,Acu-Link.com,2013-01-02 00:50:00,
2013-01-01 20:05:00,30.4,21.4,29.91,SW,225,2.2,-999.0,69,-99.99,,,0.02,Acu-Link.com,2013-01-02 01:05:00,
2013-01-01 20:20:00,29.8,20.6,29.92,West,270,0.0,-999.0,68,-99.99,,,0.02,Acu-Link.com,2013-01-02 01:20:00,
2013-01-01 20:35:00,29.7,20.4,29.93,West,270,4.7,-999.0,68,-99.99,,,0.02,Acu-Link.com,2013-01-02 01:35:00,
2013-01-01 20:50:00,29.1,19.6,29.93,SW,225,3.1,-999.0,67,-99.99,,,0.02,Acu-Link.com,2013-01-02 01:50:00,
2013-01-01 21:06:00,28.9,19.7,29.93,NW,315,5.1,-999.0,68,-99.99,,,0.02,Acu-Link.com,2013-01-02 02:06:00,
2013-01-01 21:21:00,28.4,18.2,29.94,SW,225,2.2,-999.0,65,-99.99,,,0.02,Acu-Link.com,2013-01-02 02:21:00,
2013-01-01 21:36:00,28.0,17.5,29.94,South,180,5.1,-999.0,64,-99.99,,,0.02,Acu-Link.com,2013-01-02 02:36:00,
2013-01-01 21:51:00,27.7,17.5,29.94,West,270,3.1,-999.0,65,-99.99,,,0.02,Acu-Link.com,2013-01-02 02:51:00,
2013-01-01 22:06:00,27.3,17.5,29.95,WSW,247,6.7,-999.0,66,-99.99,,,0.02,Acu-Link.com,2013-01-02 03:06:00,
2013-01-01 22:21:00,27.0,17.8,29.95,SSW,202,1.6,-999.0,68,-99.99,,,0.02,Acu-Link.com,2013-01-02 03:21:00,
2013-01-01 22:36:00,26.8,17.7,29.96,West,270,1.6,-999.0,68,-99.99,,,0.02,Acu-Link.com,2013-01-02 03:36:00,
2013-01-01 22:51:00,26.4,17.0,29.96,NE,45,0.0,-999.0,67,-99.99,,,0.02,Acu-Link.com,2013-01-02 03:51:00,
2013-01-01 23:06:00,26.2,17.5,29.96,West,270,1.6,-999.0,69,-99.99,,,0.02,Acu-Link.com,2013-01-02 04:06:00,
2013-01-01 23:21:00,25.7,17.0,29.97,WNW,292,2.7,-999.0,69,-99.99,,,0.02,Acu-Link.com,2013-01-02 04:21:00,
2013-01-01 23:37:00,25.5,16.8,29.97,SW,225,5.1,-999.0,69,-99.99,,,0.02,Acu-Link.com,2013-01-02 04:37:00,
2013-01-01 23:52:00,25.2,16.8,29.97,ESE,112,0.0,-999.0,70,-99.99,,,0.02,Acu-Link.com,2013-01-02 04:52:00,